Location: ???? ?????????
(31.1304°N, 31.7111°E)
Time: 12:17:55
(UTC+00:00)

CZ-4 R/B - Pass Details

Date: 29 October 2020
Orbit: 532 x 598 km, 97.7° (Epoch: 26 November)

Event Time Altitude Azimuth Distance (km) Brightness Sun altitude
Rises 15:44:18 0° 134° (SE) 2,708 4.5 -8.6°
Reaches altitude 10° 15:46:56 10° 115° (ESE) 1,807 3.5 -9.2°
Maximum altitude 15:49:37 18° 71° (ENE) 1,358 2.7 -9.7°
Drops below altitude 10° 15:52:17 10° 27° (NNE) 1,796 3.6 -10.3°
Sets 15:54:53 0° 9° (N) 2,684 4.6 -10.9°
